Weather History for Mexico City Airport, Mexico

Change the Weather History Date:

Sunday, February 9, 2014

  Actual Average Record
Temperature  
Mean Temperature 60 °F -  
Max Temperature 75 °F 73 °F 78 °F (1999)
Min Temperature 44 °F 44 °F 32 °F (2000)
Degree Days  
Heating Degree Days 6    
Growing Degree Days 10 (Base 50)    
Moisture  
Dew Point 26 °F    
Average Humidity 30    
Maximum Humidity 53    
Minimum Humidity 10    
Precipitation  
Precipitation 0.00 in - - ()
Sea Level Pressure  
Sea Level Pressure 30.21 in    
Wind  
Wind Speed 4 mph ()    
Max Wind Speed 16 mph    
Max Gust Speed -    
Visibility 11.1 miles    
Events      
Averages and records for this station are not official NWS values.
T = Trace of Precipitation, MM = Missing Value Source: Averaged Metar Reports

Daily Weather History Graph

Daily Weather History Graph

Search for Another Location

Airport:

Trip Planner

Search our weather history database for the weather conditions in past years. The results will help you decide how hot, cold, wet, or windy it might be!

Date:

Astronomy

Feb. 09, 2014 Rise Set
Actual Time 7:08 AM CST 6:33 PM CST
Civil Twilight 6:45 AM CST 6:56 PM CST
Nautical Twilight 6:19 AM CST 7:22 PM CST
Astronomical Twilight 5:53 AM CST 7:47 PM CST
Moon 2:27 PM CST (2/9) 3:01 AM CST (2/9)
Length of Visible Light 12h 10m
Length of Day
11h 25m
Waxing Gibbous, 77% of the Moon is Illuminated
Feb 9
Waxing Gibbous
Feb 14
Full
Feb 22
Last Quarter
Mar 1
New
Mar 8
First Quarter

Hourly Weather History & Observations

Time (CST) Temp. Windchill Dew Point Humidity Pressure Visibility Wind Dir Wind Speed Gust Speed Precip Events Conditions
12:48 AM 59.0 °F - 30.2 °F 34% 30.36 in 10.0 mi Calm Calm - N/A   Clear
1:47 AM 57.2 °F - 32.0 °F 38% 30.35 in 10.0 mi East 3.5 mph - N/A   Clear
2:45 AM 57.2 °F - 30.2 °F 36% 29.82 in 8.0 mi East 4.6 mph - N/A   Clear
3:47 AM 50.0 °F - 30.2 °F 47% 30.31 in 10.0 mi ENE 4.6 mph - N/A   Clear
4:46 AM 48.2 °F - 28.4 °F 46% 30.31 in 10.0 mi East 2.3 mph - N/A   Clear
5:46 AM 46.4 °F 44.3 °F 28.4 °F 50% 29.91 in 10.0 mi ENE 4.6 mph - N/A   Clear
6:20 AM 46.4 °F 45.2 °F 30.2 °F 53% 30.34 in 10.0 mi ENE 3.5 mph - N/A   Clear
6:47 AM 46.4 °F 45.2 °F 28.4 °F 50% 30.34 in 10.0 mi NE 3.5 mph - N/A   Clear
7:21 AM 44.6 °F 41.4 °F 28.4 °F 53% 30.35 in 10.0 mi ENE 5.8 mph - N/A   Clear
7:42 AM 46.4 °F 45.2 °F 30.2 °F 53% 30.35 in 10.0 mi East 3.5 mph - N/A   Clear
8:20 AM 50.0 °F - 30.2 °F 47% 30.37 in 10.0 mi Calm Calm - N/A   Clear
8:22 AM 50.0 °F - 30.2 °F 47% 30.37 in 10.0 mi Calm Calm - N/A   Clear
8:42 AM 51.8 °F - 33.8 °F 50% 29.98 in 10.0 mi Calm Calm - N/A   Clear
9:12 AM 55.4 °F - 35.6 °F 47% 30.38 in 8.0 mi East 2.3 mph - N/A   Clear
9:22 AM 57.2 °F - 32.0 °F 38% 30.38 in 8.0 mi NNE 2.3 mph - N/A   Clear
9:38 AM 60.8 °F - 32.0 °F 34% 30.38 in 8.0 mi North 2.3 mph - N/A   Clear
9:42 AM 60.8 °F - 32.0 °F 34% 30.38 in 8.0 mi NNE 4.6 mph - N/A   Clear
10:03 AM 64.4 °F - 30.2 °F 28% 30.38 in 8.0 mi NW 3.5 mph - N/A   Clear
10:42 AM 66.2 °F - 24.8 °F 21% 30.38 in 10.0 mi West 4.6 mph - N/A   Clear
11:42 AM 69.8 °F - 23.0 °F 17% 30.35 in 10.0 mi NNE 8.1 mph - N/A   Clear
11:44 AM 69.8 °F - 23.0 °F 17% 29.88 in 10.0 mi NNE 6.9 mph - N/A   Clear
12:42 PM 69.8 °F - 17.6 °F 14% 30.31 in 12.0 mi North 11.5 mph - N/A   Clear
1:31 PM 73.4 °F - 17.6 °F 12% 30.28 in 15.0 mi NNW 11.5 mph - N/A   Clear
1:42 PM 73.4 °F - 17.6 °F 12% 30.28 in 15.0 mi North 16.1 mph - N/A   Clear
2:43 PM 73.4 °F - 15.8 °F 11% 29.75 in 12.0 mi NW 4.6 mph - N/A   Clear
3:41 PM 75.2 °F - 15.8 °F 11% 30.21 in 12.0 mi WNW 8.1 mph - N/A   Clear
4:43 PM 75.2 °F - 14.0 °F 10% 30.20 in 12.0 mi NNE 10.4 mph - N/A   Clear
5:43 PM 75.2 °F - 15.8 °F 11% 29.75 in 12.0 mi North 9.2 mph - N/A   Clear
6:42 PM 71.6 °F - 15.8 °F 12% 30.22 in 12.0 mi North 4.6 mph - N/A   Clear
7:43 PM 69.8 °F - 21.2 °F 16% 30.25 in 15.0 mi North 15.0 mph - N/A   Clear
8:22 PM 66.2 °F - 24.8 °F 21% 30.27 in 15.0 mi NNE 11.5 mph - N/A   Clear
8:44 PM 66.2 °F - 24.8 °F 21% 29.85 in 15.0 mi NE 10.4 mph - N/A   Clear
9:47 PM 64.4 °F - 24.8 °F 22% 30.30 in 15.0 mi NE 3.5 mph - N/A   Clear
10:49 PM 62.6 °F - 24.8 °F 24% 30.31 in 15.0 mi WNW 6.9 mph - N/A   Clear
11:45 PM 60.8 °F - 26.6 °F 27% 29.81 in 15.0 mi West 5.8 mph - N/A   Clear